{"data":{"norad_id":61869,"epoch":"2026-09-22T23:25:12.442080Z","epoch_age_seconds":88098,"freshness":"FRESH","line1":"1 61869U 24203A   26265.97583845  .00009965  00000+0  32122-3 0  9992","line2":"2 61869  97.4111 336.2755 0010006 346.6310  13.4666 15.32328244103921","mean_motion":15.32328244,"eccentricity":0.0010006,"inclination_deg":97.4111,"raan_deg":336.2755,"arg_perigee_deg":346.631,"mean_anomaly_deg":13.4666,"bstar":0.00032122,"rev_number":10392,"period_min":93.974643203144,"perigee_km":462.01675935641,"apogee_km":475.71898550712,"semimajor_km":6847.0048724318,"source":"CELESTRAK","updated_at":"2026-09-23T09:00:21.084334Z"}}